Skip Page Navigation
NASA JPL Caltech
NASA Logo - Jet Propulsion Laboratory + View the NASA Portal
+ Center for Near-Earth Object Studies
JPL Home Earth Solar System Stars & Galaxies Technology
JPL Solar System Dynamics
BODIES ORBITS EPHEMERIDES TOOLS PHYSICAL DATA DISCOVERY FAQ SITE MAP
IMPORTANT: The SSD Announcement email list is now available. Major changes are coming in the near future, including possible hostname and/or URL changes. To be notified of such changes, subscribe to this email list.

Please visit this page for more details.


JPL Small-Body Database Browser
Search: [ help ]  
35966 (1999 LJ13)
Classification: Main-belt Asteroid          SPK-ID: 2035966
Ephemeris | Orbit Diagram | Orbital Elements | Mission Design | Physical Parameters | Discovery Circumstances | Close-Approach Data ]

[ show orbit diagram ]
Orbital Elements at Epoch 2458600.5 (2019-Apr-27.0) TDB
Reference: JPL 23 (heliocentric ecliptic J2000)
 Element Value Uncertainty (1-sigma)   Units 
e .05399581533476803 3.5561e-08  
a 2.371321120813318 1.0831e-08 au
q 2.243279703474446 8.2643e-08 au
i 7.906159469877206 4.3135e-06 deg
node 130.3239983750679 2.868e-05 deg
peri 101.2931042103661 5.1488e-05 deg
M 184.9893672098351 4.2258e-05 deg
tp 2459248.904343502204
(2021-Feb-03.40434350)
0.00015686 TDB
period 1333.779324943458
3.65
9.1383e-06
2.502e-08
d
yr
n .2699097168980792 1.8493e-09 deg/d
Q 2.499362538152188 1.1416e-08 au
  Orbit Determination Parameters
   # obs. used (total)      1078  
   data-arc span      7694 days (21.07 yr)  
   first obs. used      1997-12-28  
   last obs. used      2019-01-21  
   planetary ephem.      DE431  
   SB-pert. ephem.      SB431-N16  
   condition code      0  
   norm. resid. RMS      .52159  
   source      ORB  
   producer      Otto Matic  
   solution date      2019-Jul-13 01:49:40  

Additional Information
 Earth MOID = 1.24743 au 
 Jupiter MOID = 2.50655 au 
 T_jup = 3.530 
[ show covariance matrix ]

Ephemeris | Orbit Diagram | Orbital Elements | Mission Design | Physical Parameters | Discovery Circumstances | Close-Approach Data ]

Physical Parameter Table
Parameter Symbol Value Units Sigma Reference Notes
absolute magnitude H 15.1   n/a MPO452672  
diameter diameter 2.349 km 0.236 urn:nasa:pds:neowise_diameters_albedos::2.0[mainbelt] (http://adsabs.harvard.edu/abs/2011ApJ...741...68M)  
geometric albedo albedo 0.385   0.085 urn:nasa:pds:neowise_diameters_albedos::2.0[mainbelt] (http://adsabs.harvard.edu/abs/2011ApJ...741...68M)  

35966 (1999 LJ13)          Discovered 1999-Jun-09 by LINEAR at Socorro
Reference: 20020227/Numbers.arcLast Updated: 2004-04-19

[ show close-approach data ]
Alternate Designations
 1999 LJ13 = 2000 TT51 
Ephemeris | Orbit Diagram | Orbital Elements | Mission Design | Physical Parameters | Discovery Circumstances | Close-Approach Data ]
ABOUT SSD CREDITS/AWARDS PRIVACY/COPYRIGHT GLOSSARY LINKS
FirstGov 2019-Oct-17 17:29 UT
(server date/time)  
NASA Home Page
Site Manager:   Ryan S. Park
Webmaster  Alan B. Chamberlin